Dewpoint
74 73 72 72 72 72 73 73 72 72 74 72 71 72 73 74 75 75 75 75 75 75 76 76 77 77 75 76 78 77 76 76 75 74 75 75 73 72 70 72 73 73
74 74 74 73 74 75 74 73 74 73 74 75 74 73 75 75 74 74 75 75 75 75 76 75 76 76 76 75 77 75 76 76 76 73 75 75 74 73 72 73 72 74
73 73 73 72 70 72 70 72 74 74 72 72 73 75 73 74 74 76 75 75 74 73 75 76 76 76 75 76 77 75 74 76 75 73 76 75 74 74 74 71 70 72
74 73 71 70 71 71 71 73 73 74 73 73 73 72 73 71 74 74 75 76 75 75 74 75 75 74 75 75 77 76 75 76 74 76 76 75 75 74 73 73 72 71
73 73 73 72 72 73 73 72 70 71 72 72 72 73 75 76 75 73 74 74 76 74 74 75 75 74 76 76 77 76 75 74 75 77 76 75 75 75 73 73 74 73
74 75 75 73 74 74 72 71 72 71 72 71 72 72 73 74 74 73 73 72 72 72 72 72 73 73 73 75 76 75 74 72 73 75 75 75 74 73 71 73 75 74
72 74 73 73 73 73 73 73 73 73 72 71 73 73 73 73 73 74 74 73 72 73 72 73 75 74 74 75 76 76 76 76 75 75 75 74 75 75 73 74 75 75
71 73 73 73 72 72 73 72 72 73 74 74 72 73 74 72 73 72 73 73 72 73 74 73 75 76 73 73 75 75 74 72 73 75 76 75 75 75 75 73 75 75
72 73 73 73 72 71 71 70 71 72 74 73 72 71 73 73 72 72 74 74 74 74 75 74 75 74 74 74 75 75 74 73 72 74 74 74 73 74 73 74 74 74
73 73 71 71 71 71 71 70 70 71 73 72 72 71 71 74 73 73 73 76 74 75 75 75 75 74 74 74 75 75 74 74 74 75 74 73 73 73 72 73 73 73
72 72 72 72 71 70 70 70 70 70 72 72 72 71 72 72 74 75 75 75 73 74 75 75 75 75 75 74 74 74 74 73 74 75 74 74 74 74 74 75 74 73
74 73 72 72 72 71 70 70 70 70 71 72 72 72 73 72 73 73 73 74 74 73 74 75 76 76 76 76 74 74 74 74 74 74 74 74 74 73 74 74 73 74
74 73 73 72 72 71 70 71 71 70 71 71 72 73 72 72 71 73 74 73 74 73 73 75 76 75 77 77 75 75 74 75 73 74 74 74 74 73 73 73 73 72
74 74 75 74 73 74 73 71 71 71 72 72 73 73 72 72 71 71 72 73 73 73 74 75 76 75 76 77 76 75 74 74 74 74 73 74 73 74 73 72 72 72
75 75 76 76 75 75 74 73 72 73 73 74 74 73 70 71 72 71 72 72 73 73 74 74 73 74 74 75 75 76 75 73 74 74 74 74 74 72 72 73 73 72
76 76 76 76 76 76 76 75 74 74 72 73 73 73 73 74 74 73 72 71 72 73 73 72 72 72 75 76 75 74 75 73 73 75 75 74 74 74 72 72 71 71
76 75 76 76 76 76 76 76 76 75 75 74 74 74 74 75 74 73 72 71 70 71 71 70 70 71 75 70 70 73 75 74 75 75 74 76 74 75 75 72 72 72
74 74 75 75 76 76 76 76 76 76 76 76 74 73 75 74 73 73 73 72 71 71 70 70 70 74 69 69 70 70 74 74 73 74 72 73 72 72 73 73 72 72
74 73 74 74 75 75 76 76 76 76 76 76 75 74 73 74 74 73 73 73 72 72 71 70 70 71 67 68 68 68 69 75 72 73 74 73 72 73 73 73 74 74
74 74 74 74 74 75 75 75 75 75 75 75 75 75 75 74 72 73 73 74 73 73 73 72 71 70 67 67 67 67 68 71 75 74 74 73 74 74 73 73 75 75
73 73 73 73 73 73 73 74 74 75 75 75 76 75 75 75 74 74 74 73 72 72 72 71 69 61 62 62 62 63 65 70 73 72 72 72 73 73 75 75 74 74
73 73 72 72 72 73 73 72 73 74 75 75 75 75 75 76 76 74 74 74 74 74 72 71 65 58 59 59 59 60 65 68 72 74 73 73 73 73 74 75 74 74
70 71 71 71 72 72 73 73 73 73 73 73 73 73 73 74 73 73 73 73 73 73 73 73 68 60 56 57 58 58 64 71 73 73 73 72 72 73 73 73 74 75
71 71 71 71 71 71 72 72 72 72 72 72 72 72 72 73 73 72 71 72 71 71 71 71 67 60 54 54 56 59 66 71 73 73 73 73 73 74 75 75 74 74
71 71 70 70 70 70 70 70 71 71 71 71 70 70 71 71 71 70 70 70 70 69 68 69 67 64 55 54 56 59 68 72 72 72 72 72 72 72 73 72 73 71
71 70 70 70 70 70 70 71 71 71 71 71 70 70 69 71 70 70 69 68 68 67 66 66 65 64 59 53 54 58 63 71 71 71 70 71 72 72 73 72 70 68